CW9206 Weather Reports


time (UTC)temp
F
wind
direction
speed
knots
gust
knots
rain 1hr
in
rain 24hr
in
rain mn
in
humidity
%
barometer
mb
20260903082305 63 218 0.0 0.0 0.00 0.00 0.00 4 1015.5
20260903081802 63 218 0.0 0.0 0.00 0.00 0.00 4 1015.5
20260903081302 63 218 0.0 0.0 0.00 0.00 0.00 4 1015.5
20260903080802 63 218 0.0 0.0 0.00 0.00 0.00 4 1015.6
20260903080302 63 218 0.0 0.0 0.00 0.00 0.00 4 1015.6
20260903075301 62 218 0.0 0.0 0.00 0.00 0.00 4 1015.6
20260903074801 62 218 0.0 0.0 0.00 0.00 0.00 4 1015.7
20260903074302 62 218 0.0 0.0 0.00 0.00 0.00 4 1015.9
20260903073801 62 218 0.0 0.0 0.00 0.00 0.00 4 1015.8
20260903073301 62 218 0.0 0.0 0.00 0.00 0.00 4 1015.8
20260903072801 62 218 0.0 0.0 0.00 0.00 0.00 4 1015.8
20260903072301 62 218 0.0 0.0 0.00 0.00 0.00 4 1015.8
20260903071301 62 218 0.0 0.0 0.00 0.00 0.00 4 1015.9
20260903070301 62 218 0.0 0.0 0.00 0.00 0.00 4 1015.6
20260903065301 62 218 0.0 0.0 0.00 0.00 0.00 4 1015.5
20260903064801 62 218 0.0 0.0 0.00 0.00 0.00 4 1015.4
20260903064301 62 218 0.0 0.0 0.00 0.00 0.00 4 1015.5
20260903063801 62 218 0.0 0.0 0.00 0.00 0.00 4 1015.5
20260903062801 63 218 0.0 0.0 0.00 0.00 0.00 4 1015.5
20260903062301 63 218 0.0 0.0 0.00 0.00 0.00 4 1015.6
20260903061800 63 218 0.0 0.0 0.00 0.00 0.00 4 1015.6
20260903061301 63 218 0.0 0.0 0.00 0.00 0.00 4 1015.5
20260903060301 63 218 0.0 0.0 0.00 0.00 0.00 4 1015.6
20260903055800 63 218 0.0 0.0 0.00 0.00 0.00 5 1015.5
20260903055300 63 218 0.0 0.0 0.00 0.00 0.00 5 1015.5
20260903054800 63 218 0.0 0.0 0.00 0.00 0.00 5 1015.6
20260903054300 63 218 0.0 0.0 0.00 0.00 0.00 6 1015.6
20260903053801 63 218 0.0 0.0 0.00 0.00 0.00 6 1015.6
20260903053300 64 218 0.0 0.0 0.00 0.00 0.00 7 1015.5
20260903052800 64 218 0.0 0.0 0.00 0.00 0.00 7 1015.6
20260903052301 64 218 0.0 0.0 0.00 0.00 0.00 7 1015.6
20260903051800 64 218 0.0 0.0 0.00 0.00 0.00 7 1015.6
20260903051300 64 218 0.0 0.0 0.00 0.00 0.00 8 1015.7
20260903045801 64 218 0.0 0.0 0.00 0.00 0.00 10 1015.6
20260903045300 65 218 0.0 0.0 0.00 0.00 0.00 10 1015.7
20260903044800 65 218 0.0 0.0 0.00 0.00 0.00 11 1015.7
20260903044300 65 218 0.0 0.0 0.00 0.00 0.00 11 1015.8
20260903043800 65 218 0.0 0.0 0.00 0.00 0.00 12 1015.7
20260903043300 65 218 0.0 0.0 0.00 0.00 0.00 12 1015.7
20260903042800 65 218 0.0 0.0 0.00 0.00 0.00 13 1015.7
20260903042259 65 218 0.0 0.0 0.00 0.00 0.00 14 1015.7
20260903041300 66 218 0.0 0.0 0.00 0.00 0.00 15 1015.6
20260903040759 66 218 0.0 0.0 0.00 0.00 0.00 15 1015.5
20260903040300 66 218 0.0 0.0 0.00 0.00 0.00 16 1015.5
20260903034800 66 218 0.0 0.0 0.00 0.00 0.00 19 1015.1
20260903034259 67 218 0.0 0.0 0.00 0.00 0.00 21 1015.1
20260903033759 67 218 0.0 0.0 0.00 0.00 0.00 22 1015.1
20260903033259 67 218 0.0 0.0 0.00 0.00 0.00 24 1015.0
20260903032759 67 218 0.0 0.0 0.00 0.00 0.00 25 1014.9
20260903032259 68 218 0.0 0.0 0.00 0.00 0.00 27 1014.9
20260903031759 68 218 0.0 0.0 0.00 0.00 0.00 28 1014.9
20260903031259 69 218 0.0 0.0 0.00 0.00 0.00 29 1014.8
20260903030759 69 218 0.0 0.0 0.00 0.00 0.00 30 1014.8
20260903030259 69 218 0.0 0.0 0.00 0.00 0.00 31 1014.7
20260903025759 70 218 0.0 0.0 0.00 0.00 0.00 32 1014.5
20260903025259 70 218 0.0 0.0 0.00 0.00 0.00 33 1014.5
20260903024758 75 218 0.0 0.0 0.00 0.00 0.00 46 1014.6
20260903024259 75 218 0.0 0.0 0.00 0.00 0.00 46 1014.7
20260903023759 75 218 0.0 0.0 0.00 0.00 0.00 46 1014.6
20260903023258 75 218 0.0 0.0 0.00 0.00 0.00 46 1014.5
20260903022759 75 218 0.0 0.0 0.00 0.00 0.00 46 1014.5
20260903022258 75 218 0.0 0.0 0.00 0.00 0.00 46 1014.3
20260903021758 75 218 0.0 0.0 0.00 0.00 0.00 46 1014.4
20260903021258 75 218 0.0 0.0 0.00 0.00 0.00 46 1014.4
20260903020258 75 218 0.0 0.0 0.00 0.00 0.00 46 1014.5
20260903015758 75 218 0.0 0.0 0.00 0.00 0.00 46 1014.4
20260903015258 75 218 0.0 0.0 0.00 0.00 0.00 46 1014.3
20260903014758 75 218 0.0 0.0 0.00 0.00 0.00 47 1014.3
20260903014258 76 218 0.0 0.0 0.00 0.00 0.00 47 1014.4
20260903013758 76 218 0.0 0.0 0.00 0.00 0.00 46 1014.4
20260903013258 76 218 0.0 0.0 0.00 0.00 0.00 46 1014.3
20260903012758 76 218 0.0 0.0 0.00 0.00 0.00 45 1014.3
20260903012258 77 218 0.0 0.0 0.00 0.00 0.00 46 1014.3
20260903011758 77 218 0.0 0.0 0.00 0.00 0.00 47 1014.3
20260903011257 78 218 0.0 0.0 0.00 0.00 0.00 46 1014.4
20260903010757 78 218 0.0 0.0 0.00 0.00 0.00 46 1014.3
20260903005757 79 218 0.0 0.0 0.00 0.00 0.00 45 1014.3
20260903005257 80 218 0.0 0.0 0.00 0.00 0.00 42 1014.2
20260903004757 81 218 0.0 0.0 0.00 0.00 0.00 41 1014.1
20260903004257 82 218 0.0 0.0 0.00 0.00 0.00 43 1014.2
20260903003757 82 218 0.0 0.0 0.00 0.00 0.00 42 1014.2
20260903003258 83 218 0.0 0.0 0.00 0.00 0.00 42 1014.2
20260903002757 84 218 0.0 0.0 0.00 0.00 0.00 41 1014.1
20260903002257 84 218 0.0 0.0 0.00 0.00 0.00 41 1014.1
20260903001257 84 218 0.0 0.0 0.00 0.00 0.00 40 1014.1
20260902235757 84 218 0.0 0.0 0.00 0.00 0.00 42 1014.2
20260902235257 84 218 0.0 0.0 0.00 0.00 0.00 42 1014.1
20260902234757 84 218 0.0 0.0 0.00 0.00 0.00 42 1014.2
20260902234257 84 218 0.0 0.0 0.00 0.00 0.00 43 1014.2
20260902233757 84 218 0.0 0.0 0.00 0.00 0.00 42 1014.2
20260902232757 85 218 0.0 0.0 0.00 0.00 0.00 41 1014.2
20260902232256 85 218 0.0 0.0 0.00 0.00 0.00 41 1014.2
20260902230757 85 218 0.0 0.0 0.00 0.00 0.00 41 1014.3
20260902230256 86 218 0.0 0.0 0.00 0.00 0.00 40 1014.2
20260902225756 86 218 0.0 0.0 0.00 0.00 0.00 39 1014.2
20260902225256 86 218 0.0 0.0 0.00 0.00 0.00 40 1014.2
20260902224756 86 218 0.0 0.0 0.00 0.00 0.00 40 1014.1
20260902223756 85 218 0.0 0.0 0.00 0.00 0.00 41 1014.3
20260902223256 85 218 0.0 0.0 0.00 0.00 0.00 40 1014.3
20260902222756 86 218 0.0 0.0 0.00 0.00 0.00 39 1014.4
20260902222256 86 218 0.0 0.0 0.00 0.00 0.00 39 1014.4
20260902221756 86 218 0.0 0.0 0.00 0.00 0.00 39 1014.4
20260902221256 86 218 0.0 0.0 0.00 0.00 0.00 39 1014.5
20260902220756 86 218 0.0 0.0 0.00 0.00 0.00 39 1014.6
20260902220256 86 218 0.0 0.0 0.00 0.00 0.00 39 1014.7
20260902215756 86 218 0.0 0.0 0.00 0.00 0.00 39 1014.7
20260902215256 86 218 0.0 0.0 0.00 0.00 0.00 39 1014.8
20260902214755 86 218 0.0 0.0 0.00 0.00 0.00 39 1014.8
20260902214256 87 218 0.0 0.0 0.00 0.00 0.00 39 1014.8
20260902213755 87 218 0.0 0.0 0.00 0.00 0.00 38 1014.7
20260902213256 87 218 0.0 0.0 0.00 0.00 0.00 38 1014.8
20260902212755 87 218 0.0 0.0 0.00 0.00 0.00 38 1014.8
20260902212256 87 218 0.0 0.0 0.00 0.00 0.00 38 1014.9
20260902211755 87 218 0.0 0.0 0.00 0.00 0.00 38 1014.9
20260902210755 86 218 0.0 0.0 0.00 0.00 0.00 38 1014.9
20260902210255 86 218 0.0 0.0 0.00 0.00 0.00 38 1015.0
20260902205755 85 218 0.0 0.0 0.00 0.00 0.00 38 1014.9
20260902205255 85 218 0.0 0.0 0.00 0.00 0.00 38 1014.8
20260902204755 85 218 0.0 0.0 0.00 0.00 0.00 38 1015.0
20260902204255 85 218 0.0 0.0 0.00 0.00 0.00 38 1015.1
20260902203755 85 218 0.0 0.0 0.00 0.00 0.00 38 1015.0
20260902203255 85 218 0.0 0.0 0.00 0.00 0.00 38 1015.1
20260902202755 85 218 0.0 0.0 0.00 0.00 0.00 38 1015.0
20260902201755 86 218 0.0 0.0 0.00 0.00 0.00 37 1015.2
20260902201255 86 218 0.0 0.0 0.00 0.00 0.00 37 1015.2
20260902200755 86 218 0.0 0.0 0.00 0.00 0.00 37 1015.3
20260902195754 85 218 0.0 0.0 0.00 0.00 0.00 36 1015.5
20260902194254 85 218 0.0 0.0 0.00 0.00 0.00 35 1015.7
20260902193754 84 218 0.0 0.0 0.00 0.00 0.00 35 1015.8
20260902193254 83 218 0.0 0.0 0.00 0.00 0.00 35 1015.8
20260902192754 82 218 0.0 0.0 0.00 0.00 0.00 35 1015.9
20260902192254 82 218 0.0 0.0 0.00 0.00 0.00 34 1016.0
20260902191754 81 218 0.0 0.0 0.00 0.00 0.00 34 1016.0
20260902191255 81 218 0.0 0.0 0.00 0.00 0.00 34 1016.1
20260902190754 80 218 0.0 0.0 0.00 0.00 0.00 33 1016.1
20260902185754 79 218 0.0 0.0 0.00 0.00 0.00 32 1016.3
20260902185254 79 218 0.0 0.0 0.00 0.00 0.00 31 1016.4
20260902184254 78 218 0.0 0.0 0.00 0.00 0.00 29 1016.4
20260902183754 77 218 0.0 0.0 0.00 0.00 0.00 29 1016.3
20260902183254 76 218 0.0 0.0 0.00 0.00 0.00 27 1016.5
20260902182753 76 218 0.0 0.0 0.00 0.00 0.00 27 1016.6
20260902182254 75 218 0.0 0.0 0.00 0.00 0.00 27 1016.5
20260902181754 74 218 0.0 0.0 0.00 0.00 0.00 26 1016.6
20260902181254 74 218 0.0 0.0 0.00 0.00 0.00 26 1016.6
20260902180754 73 218 0.0 0.0 0.00 0.00 0.00 26 1016.5
20260902180253 73 218 0.0 0.0 0.00 0.00 0.00 25 1016.5
20260902175753 73 218 0.0 0.0 0.00 0.00 0.00 25 1016.6
20260902175253 72 218 0.0 0.0 0.00 0.00 0.00 24 1016.7
20260902174753 72 218 0.0 0.0 0.00 0.00 0.00 23 1016.8
20260902174253 71 218 0.0 0.0 0.00 0.00 0.00 23 1016.7
20260902173753 70 218 0.0 0.0 0.00 0.00 0.00 23 1016.5
20260902173253 70 218 0.0 0.0 0.00 0.00 0.00 22 1016.5
20260902172253 69 218 0.0 0.0 0.00 0.00 0.00 21 1016.5
20260902171753 69 218 0.0 0.0 0.00 0.00 0.00 20 1016.7
20260902171253 68 218 0.0 0.0 0.00 0.00 0.00 19 1016.7
20260902170253 67 218 0.0 0.0 0.00 0.00 0.00 18 1016.6
20260902165253 65 218 0.0 0.0 0.00 0.00 0.00 16 1016.6
20260902164752 65 218 0.0 0.0 0.00 0.00 0.00 15 1016.6
20260902163753 64 218 0.0 0.0 0.00 0.00 0.00 13 1016.4
20260902163253 63 218 0.0 0.0 0.00 0.00 0.00 11 1016.4
20260902162753 63 218 0.0 0.0 0.00 0.00 0.00 9 1016.5
20260902162252 62 218 0.0 0.0 0.00 0.00 0.00 8 1016.5
20260902161752 61 218 0.0 0.0 0.00 0.00 0.00 7 1016.4
20260902161252 60 218 0.0 0.0 0.00 0.00 0.00 6 1016.4
20260902160252 59 218 0.0 0.0 0.00 0.00 0.00 6 1016.6
20260902155752 58 218 0.0 0.0 0.00 0.00 0.00 6 1016.6
20260902155252 57 218 0.0 0.0 0.00 0.00 0.00 7 1016.6
20260902154752 56 218 0.0 0.0 0.00 0.00 0.00 7 1016.6
20260902154251 56 218 0.0 0.0 0.00 0.00 0.00 7 1016.6
20260902153751 55 218 0.0 0.0 0.00 0.00 0.00 8 1016.6
20260902153251 55 218 0.0 0.0 0.00 0.00 0.00 8 1016.6
20260902152752 54 218 0.0 0.0 0.00 0.00 0.00 8 1016.3
20260902152251 54 218 0.0 0.0 0.00 0.00 0.00 8 1016.2
20260902151752 53 218 0.0 0.0 0.00 0.00 0.00 8 1016.1
20260902151252 53 218 0.0 0.0 0.00 0.00 0.00 8 1016.2
20260902150751 52 218 0.0 0.0 0.00 0.00 0.00 8 1016.3
20260902150251 51 218 0.0 0.0 0.00 0.00 0.00 8 1016.4
20260902145751 51 218 0.0 0.0 0.00 0.00 0.00 8 1016.3
20260902145251 50 218 0.0 0.0 0.00 0.00 0.00 9 1016.4
20260902144751 50 218 0.0 0.0 0.00 0.00 0.00 9 1016.4
20260902144251 49 218 0.0 0.0 0.00 0.00 0.00 9 1016.3
20260902143751 49 218 0.0 0.0 0.00 0.00 0.00 9 1016.3
20260902143251 49 218 0.0 0.0 0.00 0.00 0.00 9 1016.4
20260902142751 48 218 0.0 0.0 0.00 0.00 0.00 9 1016.3
20260902142251 48 218 0.0 0.0 0.00 0.00 0.00 9 1016.4
20260902141751 48 218 0.0 0.0 0.00 0.00 0.00 9 1016.4
20260902141251 48 218 0.0 0.0 0.00 0.00 0.00 9 1016.4
20260902140751 48 218 0.0 0.0 0.00 0.00 0.00 9 1016.4
20260902134751 48 218 0.0 0.0 0.00 0.00 0.00 10 1016.4
20260902134250 48 218 0.0 0.0 0.00 0.00 0.00 10 1016.4
20260902133751 48 218 0.0 0.0 0.00 0.00 0.00 10 1016.4
20260902133250 48 218 0.0 0.0 0.00 0.00 0.00 10 1016.5
20260902132751 48 218 0.0 0.0 0.00 0.00 0.00 10 1016.4
20260902132250 47 218 0.0 0.0 0.00 0.00 0.00 10 1016.2
20260902131750 47 218 0.0 0.0 0.00 0.00 0.00 10 1016.2
20260902130750 47 218 0.0 0.0 0.00 0.00 0.00 11 1016.2
20260902130250 47 218 0.0 0.0 0.00 0.00 0.00 10 1016.2
20260902125750 47 218 0.0 0.0 0.00 0.00 0.00 11 1016.4
20260902125250 47 218 0.0 0.0 0.00 0.00 0.00 11 1016.2
20260902124750 47 218 0.0 0.0 0.00 0.00 0.00 11 1016.2
20260902123749 47 218 0.0 0.0 0.00 0.00 0.00 11 1016.1
20260902123250 48 218 0.0 0.0 0.00 0.00 0.00 11 1016.1
20260902122750 48 218 0.0 0.0 0.00 0.00 0.00 11 1016.0
20260902122250 48 218 0.0 0.0 0.00 0.00 0.00 10 1016.0
20260902121749 48 218 0.0 0.0 0.00 0.00 0.00 11 1016.0
20260902121250 48 218 0.0 0.0 0.00 0.00 0.00 11 1016.0
20260902120749 48 218 0.0 0.0 0.00 0.00 0.00 12 1016.0
20260902120249 48 218 0.0 0.0 0.00 0.00 0.00 12 1016.0
20260902115249 48 218 0.0 0.0 0.00 0.00 0.00 11 1016.0
20260902114749 49 218 0.0 0.0 0.00 0.00 0.00 11 1016.0
20260902114250 48 218 0.0 0.0 0.00 0.00 0.00 11 1015.8
20260902113750 49 218 0.0 0.0 0.00 0.00 0.00 12 1015.8
20260902113249 49 218 0.0 0.0 0.00 0.00 0.00 10 1015.8
20260902112749 49 218 0.0 0.0 0.00 0.00 0.00 11 1015.8
20260902112249 49 218 0.0 0.0 0.00 0.00 0.00 11 1015.9
20260902111750 49 218 0.0 0.0 0.00 0.00 0.00 10 1015.9
20260902111249 49 218 0.0 0.0 0.00 0.00 0.00 10 1015.8
20260902110750 49 218 0.0 0.0 0.00 0.00 0.00 11 1015.9
20260902110249 49 218 0.0 0.0 0.00 0.00 0.00 11 1015.8
20260902105749 49 218 0.0 0.0 0.00 0.00 0.00 12 1015.8
20260902104249 49 218 0.0 0.0 0.00 0.00 0.00 12 1015.9
20260902103749 50 218 0.0 0.0 0.00 0.00 0.00 11 1015.9
20260902103248 50 218 0.0 0.0 0.00 0.00 0.00 11 1015.9
20260902102748 50 218 0.0 0.0 0.00 0.00 0.00 12 1015.9
20260902101748 50 218 0.0 0.0 0.00 0.00 0.00 11 1015.9
20260902101249 50 218 0.0 0.0 0.00 0.00 0.00 12 1016.0
20260902100748 50 218 0.0 0.0 0.00 0.00 0.00 12 1016.0
20260902100248 50 218 0.0 0.0 0.00 0.00 0.00 12 1016.0
20260902095249 50 218 0.0 0.0 0.00 0.00 0.00 12 1016.0
20260902094248 51 218 0.0 0.0 0.00 0.00 0.00 13 1015.9
20260902093748 51 218 0.0 0.0 0.00 0.00 0.00 13 1015.9
20260902092748 51 218 0.0 0.0 0.00 0.00 0.00 12 1015.9
20260902091748 52 218 0.0 0.0 0.00 0.00 0.00 12 1015.9
20260902091248 52 218 0.0 0.0 0.00 0.00 0.00 12 1015.9
20260902090748 52 218 0.0 0.0 0.00 0.00 0.00 12 1015.9
20260902090248 52 218 0.0 0.0 0.00 0.00 0.00 13 1016.0
20260902085748 52 218 0.0 0.0 0.00 0.00 0.00 13 1016.0
20260902084748 52 218 0.0 0.0 0.00 0.00 0.00 14 1016.0
20260902084247 52 218 0.0 0.0 0.00 0.00 0.00 14 1015.9
20260902083747 52 218 0.0 0.0 0.00 0.00 0.00 13 1016.0
20260902083248 52 218 0.0 0.0 0.00 0.00 0.00 14 1016.1
20260902082748 52 218 0.0 0.0 0.00 0.00 0.00 15 1016.1